�N����,����,�~����,�C��,���x,�C��,����,���ϕ���,�ő�u�ԕ���,�ő厞����,���˗�,�I�_���x,�n�����x,�ő啗���N��,DTYPE
"23/08/23","00:10",0.0,28.9,79.4,1002.4,81.0,0.7,1.7,131.7,0.00,25.0,27.3,"00:02:08",1
"23/08/23","00:20",0.0,28.8,79.5,1002.4,127.0,1.0,2.8,152.8,0.00,24.9,27.2,"00:15:04",1
"23/08/23","00:30",0.0,28.8,79.8,1002.4,105.4,0.8,2.0,140.4,0.00,25.0,27.2,"00:26:08",1
"23/08/23","00:40",0.0,28.7,80.0,1001.9,96.0,1.0,2.4,121.0,0.00,24.9,27.3,"00:39:44",1
"23/08/23","00:50",0.0,28.7,80.1,1001.9,78.9,0.8,2.8,94.9,0.00,25.0,27.3,"00:43:52",1
"23/08/23","01:00",0.0,28.7,80.1,1002.2,71.3,0.5,2.8,38.5,0.00,25.0,27.2,"00:57:52",1
"23/08/23","01:10",0.0,28.7,80.1,1001.9,89.9,0.8,2.4,113.5,0.00,25.0,27.1,"01:02:32",1
"23/08/23","01:20",0.0,28.7,80.3,1002.2,71.0,0.6,1.7,101.5,0.00,25.0,27.2,"01:10:16",1
"23/08/23","01:30",0.0,28.7,80.4,1001.7,67.2,0.7,2.4,71.6,0.00,25.0,27.2,"01:22:48",1
"23/08/23","01:40",0.0,28.6,80.5,1002.2,59.2,0.7,2.2,109.0,0.00,25.0,27.1,"01:32:16",1
"23/08/23","01:50",0.0,28.6,80.7,1001.9,70.6,0.8,3.1,83.4,0.00,25.0,27.1,"01:42:40",1
"23/08/23","02:00",0.0,28.5,80.8,1001.9,81.3,1.0,2.6,113.7,0.00,24.9,27.0,"01:59:12",1
"23/08/23","02:10",0.0,28.5,81.0,1001.9,69.5,0.7,1.8,89.5,0.00,25.0,27.2,"02:06:40",1
"23/08/23","02:20",0.0,28.4,81.2,1001.9,96.3,1.0,2.5,76.6,0.00,24.9,27.2,"02:14:48",1
"23/08/23","02:30",0.0,28.3,81.4,1001.7,115.2,0.7,2.1,159.5,0.00,24.8,27.2,"02:25:36",1
"23/08/23","02:40",0.0,28.3,81.7,1001.9,97.6,1.0,3.7,85.2,0.00,24.9,27.0,"02:36:16",1
"23/08/23","02:50",0.0,28.3,81.8,1001.9,90.9,1.1,2.6,113.4,0.00,24.9,27.1,"02:44:00",1
"23/08/23","03:00",0.0,28.4,81.8,1002.2,95.8,1.0,3.5,77.7,0.00,25.0,27.1,"02:54:48",1
"23/08/23","03:10",0.0,28.3,81.8,1002.2,90.8,1.5,3.3,106.9,0.00,24.9,27.1,"03:01:44",1
"23/08/23","03:20",0.0,28.3,81.8,1002.4,80.6,1.1,3.2,96.9,0.00,24.9,27.1,"03:12:24",1
"23/08/23","03:30",0.0,28.3,81.8,1002.2,62.4,1.0,2.9,14.4,0.00,24.9,26.9,"03:24:08",1
"23/08/23","03:40",0.0,28.3,81.7,1002.6,92.5,1.0,3.3,120.1,0.00,24.9,26.9,"03:38:40",1
"23/08/23","03:50",0.0,28.2,81.6,1002.6,96.6,0.7,2.0,114.9,0.00,24.8,27.1,"03:40:16",1
"23/08/23","04:00",0.0,28.3,81.3,1002.4,91.1,1.0,2.6,102.4,0.00,24.8,27.0,"03:52:16",1
"23/08/23","04:10",0.0,28.2,80.9,1002.6,99.1,1.0,2.2,347.3,0.00,24.6,27.0,"04:09:04",1
"23/08/23","04:20",0.0,28.2,80.7,1002.6,112.3,0.7,2.1,88.7,0.00,24.6,27.0,"04:19:20",1
"23/08/23","04:30",0.0,28.2,80.7,1002.9,108.8,0.5,1.4,76.4,0.00,24.6,26.9,"04:22:56",1
"23/08/23","04:40",0.0,28.2,80.9,1002.9,104.1,0.7,2.0,127.8,0.00,24.6,27.0,"04:37:20",1
"23/08/23","04:50",0.0,28.2,80.9,1003.6,115.0,0.6,2.0,111.3,0.00,24.6,26.8,"04:44:56",1
"23/08/23","05:00",0.0,28.2,80.9,1003.4,94.1,1.0,4.1,104.0,0.00,24.6,27.0,"04:51:52",1
"23/08/23","05:10",0.0,28.2,80.8,1003.4,101.0,0.8,2.9,95.9,0.00,24.6,26.9,"05:01:20",1
"23/08/23","05:20",0.0,28.1,81.1,1003.1,101.6,0.6,1.9,112.9,0.00,24.6,26.8,"05:17:04",1
"23/08/23","05:30",0.0,27.9,81.5,1003.4,122.2,0.6,1.7,113.2,0.00,24.5,26.6,"05:22:16",1
"23/08/23","05:40",0.0,27.9,81.8,1003.1,135.4,0.5,1.7,120.3,0.00,24.5,26.7,"05:35:44",1
"23/08/23","05:50",0.0,28.0,81.8,1003.6,104.9,0.8,2.4,110.6,0.00,24.6,26.7,"05:48:32",1
"23/08/23","06:00",0.0,28.1,81.5,1003.6,150.1,1.0,2.5,4.7,0.00,24.7,26.9,"05:50:16",1
"23/08/23","06:10",0.2,28.1,82.0,1003.6,154.4,1.0,1.9,131.8,0.00,24.8,26.7,"06:08:08",1
"23/08/23","06:20",0.0,27.8,83.1,1003.4,106.0,0.6,2.2,127.5,0.01,24.7,26.9,"06:10:08",1
"23/08/23","06:30",0.0,28.0,84.4,1003.1,73.4,0.6,1.2,29.6,0.05,25.2,26.7,"06:24:08",1
"23/08/23","06:40",0.0,28.3,84.7,1003.1,99.9,0.5,1.6,119.6,0.05,25.5,26.8,"06:30:08",1
"23/08/23","06:50",0.0,28.4,84.8,1003.4,142.9,0.3,1.3,113.0,0.04,25.6,26.7,"06:44:48",1
"23/08/23","07:00",0.0,28.2,84.4,1003.8,122.3,0.6,1.7,121.2,0.04,25.4,26.6,"06:56:40",1
"23/08/23","07:10",0.0,28.2,83.9,1003.4,114.9,0.8,3.2,122.4,0.06,25.3,26.6,"07:09:12",1
"23/08/23","07:20",0.0,29.1,82.9,1003.6,108.0,1.0,2.6,148.7,0.13,25.9,26.9,"07:15:28",1
"23/08/23","07:30",0.0,29.2,80.9,1003.1,111.3,1.0,3.2,118.4,0.05,25.6,26.8,"07:25:20",1
"23/08/23","07:40",0.0,28.8,80.7,1003.4,125.3,1.1,2.4,88.4,0.03,25.2,26.9,"07:38:16",1
"23/08/23","07:50",0.0,29.0,80.8,1003.1,100.7,0.8,2.4,42.2,0.07,25.4,26.6,"07:41:28",1
"23/08/23","08:00",0.0,29.1,80.0,1003.1,92.1,0.7,2.1,125.7,0.07,25.3,26.7,"07:55:36",1
"23/08/23","08:10",0.0,29.2,79.4,1003.6,121.0,1.1,2.7,102.2,0.08,25.3,26.8,"08:00:02",1
"23/08/23","08:20",0.0,29.3,79.0,1003.4,118.7,1.3,2.5,91.2,0.09,25.3,26.7,"08:19:20",1
"23/08/23","08:30",0.0,29.7,78.0,1003.6,117.8,1.1,3.1,111.1,0.11,25.5,26.9,"08:29:04",1
"23/08/23","08:40",0.0,30.3,76.2,1003.8,101.0,1.5,3.3,92.2,0.22,25.7,26.8,"08:35:28",1
"23/08/23","08:50",0.0,30.4,74.2,1004.1,106.9,1.6,3.6,108.9,0.16,25.3,26.8,"08:42:16",1
"23/08/23","09:00",0.0,30.8,73.0,1004.3,104.2,1.8,3.7,88.8,0.27,25.4,26.8,"08:50:40",1
"23/08/23","09:10",0.0,31.5,70.7,1004.5,126.5,1.8,4.0,118.9,0.36,25.6,26.8,"09:01:44",1
"23/08/23","09:20",0.0,31.9,69.8,1004.5,123.8,1.8,5.0,121.0,0.33,25.7,26.9,"09:11:20",1
"23/08/23","09:30",0.0,31.8,69.2,1005.0,111.8,1.5,2.9,96.3,0.24,25.5,26.7,"09:26:48",1
"23/08/23","09:40",0.0,31.7,68.6,1005.0,112.3,1.7,5.1,126.7,0.28,25.3,27.1,"09:32:16",1
"23/08/23","09:50",0.0,31.8,68.3,1005.2,97.8,1.7,3.6,98.3,0.28,25.3,26.9,"09:45:12",1
"23/08/23","10:00",0.0,31.8,67.2,1005.0,96.1,1.5,3.9,108.4,0.28,25.0,26.9,"09:58:40",1
"23/08/23","10:10",0.0,31.5,69.1,1005.0,108.5,1.7,3.6,148.3,0.26,25.2,27.1,"10:01:20",1
"23/08/23","10:20",0.0,31.7,69.2,1005.0,104.7,1.8,4.4,87.4,0.34,25.4,27.1,"10:13:28",1
"23/08/23","10:30",0.0,31.6,69.5,1004.8,105.1,1.5,3.2,79.6,0.29,25.4,26.9,"10:22:48",1
"23/08/23","10:40",0.0,31.7,69.2,1004.8,102.3,1.6,4.1,124.0,0.34,25.4,27.2,"10:35:52",1
"23/08/23","10:50",0.0,32.0,68.8,1004.8,90.2,1.5,3.5,48.0,0.35,25.6,27.3,"10:46:40",1
"23/08/23","11:00",0.0,31.7,69.1,1004.5,99.8,1.7,4.1,109.4,0.32,25.4,27.3,"10:58:08",1
"23/08/23","11:10",0.2,32.1,68.0,1004.5,101.7,1.3,3.7,106.9,0.42,25.5,27.4,"11:09:36",1
"23/08/23","11:20",0.0,32.2,68.3,1004.3,110.8,1.8,4.5,144.5,0.40,25.7,27.4,"11:18:40",1
"23/08/23","11:30",0.0,32.2,68.1,1004.5,106.0,1.6,4.8,142.1,0.43,25.6,27.5,"11:22:24",1
"23/08/23","11:40",0.0,32.0,67.6,1004.5,103.1,1.6,3.9,106.3,0.29,25.3,27.7,"11:32:00",1
"23/08/23","11:50",0.0,32.1,68.3,1004.1,86.2,1.2,3.9,104.3,0.35,25.6,27.4,"11:40:56",1
"23/08/23","12:00",0.0,32.3,66.3,1004.3,110.5,1.6,3.9,126.5,0.37,25.2,27.5,"11:55:20",1
"23/08/23","12:10",0.0,32.1,68.3,1003.8,102.0,1.8,3.7,28.9,0.29,25.6,27.3,"12:00:08",1
"23/08/23","12:20",0.0,32.6,67.7,1004.5,103.4,1.2,3.7,146.9,0.39,25.9,27.7,"12:18:32",1
"23/08/23","12:30",0.0,33.1,65.4,1004.3,110.2,1.6,4.3,111.8,0.47,25.8,27.8,"12:25:44",1
"23/08/23","12:40",0.0,32.6,65.5,1004.3,89.3,1.6,3.9,80.3,0.23,25.3,27.7,"12:38:16",1
"23/08/23","12:50",0.0,31.9,67.7,1004.1,108.5,1.5,3.7,160.0,0.13,25.2,27.8,"12:49:12",1
"23/08/23","13:00",0.0,31.8,69.6,1003.4,108.3,1.7,3.7,113.8,0.18,25.6,27.9,"12:50:16",1
"23/08/23","13:10",0.0,31.7,68.6,1003.4,86.4,1.7,4.2,106.4,0.12,25.3,27.9,"13:04:08",1
"23/08/23","13:20",0.0,31.4,69.4,1003.4,70.1,1.2,3.6,25.4,0.07,25.2,27.7,"13:16:56",1
"23/08/23","13:30",0.0,31.5,70.4,1003.1,70.8,1.2,4.0,46.4,0.13,25.5,27.9,"13:20:56",1
"23/08/23","13:40",0.0,31.8,69.2,1003.1,82.1,1.2,3.1,78.6,0.11,25.5,28.1,"13:31:04",1
"23/08/23","13:50",0.0,31.3,69.0,1002.4,73.9,1.7,5.4,128.4,0.06,25.0,28.0,"13:40:24",1
"23/08/23","14:00",0.0,31.1,70.4,1002.6,79.1,1.3,3.3,67.6,0.05,25.1,27.8,"13:58:16",1
"23/08/23","14:10",0.0,31.3,70.8,1002.6,79.7,1.5,3.5,102.3,0.11,25.4,27.9,"14:06:24",1
"23/08/23","14:20",0.0,31.2,70.1,1002.6,88.4,1.6,3.2,136.5,0.10,25.1,27.8,"14:10:56",1
"23/08/23","14:30",0.0,30.9,71.4,1002.2,103.0,1.5,4.0,128.8,0.04,25.2,27.9,"14:23:52",1
"23/08/23","14:40",0.0,30.8,73.2,1002.2,83.5,1.2,2.9,100.2,0.04,25.5,27.8,"14:35:20",1
"23/08/23","14:50",0.0,30.4,75.3,1001.9,77.8,0.7,2.6,94.5,0.04,25.6,27.9,"14:47:20",1
"23/08/23","15:00",0.0,30.3,77.0,1001.9,58.9,1.0,2.8,109.7,0.05,25.9,27.7,"14:54:40",1
"23/08/23","15:10",0.0,29.7,77.5,1001.2,78.4,0.8,2.2,88.9,0.01,25.4,27.9,"15:06:18",1
"23/08/23","15:20",0.0,29.9,76.7,1001.7,96.3,1.3,3.3,91.0,0.02,25.4,27.8,"15:14:56",1
"23/08/23","15:30",0.0,30.2,75.5,1001.5,96.9,1.3,2.8,91.8,0.04,25.4,27.7,"15:23:20",1
"23/08/23","15:40",0.0,30.3,74.7,1001.5,110.0,1.3,4.0,149.2,0.04,25.3,27.8,"15:30:02",1
"23/08/23","15:50",0.0,30.3,73.8,1001.9,102.3,1.7,4.4,118.0,0.06,25.1,27.7,"15:49:20",1
"23/08/23","16:00",0.0,30.5,73.3,1002.2,89.1,1.7,3.4,111.8,0.09,25.2,27.7,"15:56:08",1
"23/08/23","16:10",0.0,30.5,72.5,1002.2,96.4,1.3,3.3,137.0,0.07,25.0,27.9,"16:04:00",1
"23/08/23","16:20",0.0,30.2,72.4,1002.2,82.7,1.6,3.4,110.2,0.04,24.7,27.8,"16:11:44",1
"23/08/23","16:30",0.0,30.3,72.6,1002.2,85.9,1.2,2.4,141.2,0.05,24.9,27.9,"16:28:24",1
"23/08/23","16:40",0.0,30.2,72.6,1002.4,98.9,1.2,2.5,148.9,0.05,24.8,27.7,"16:35:12",1
"23/08/23","16:50",0.0,30.3,72.6,1002.2,118.5,1.5,3.5,115.7,0.07,24.9,27.6,"16:42:32",1
"23/08/23","17:00",0.0,30.5,73.0,1002.4,94.4,1.3,3.5,87.3,0.06,25.1,27.5,"16:52:56",1
"23/08/23","17:10",0.0,30.2,73.7,1002.2,77.4,1.2,3.2,90.1,0.06,25.0,27.7,"17:09:28",1
"23/08/23","17:20",0.0,30.3,74.4,1002.4,92.2,1.1,2.9,91.7,0.05,25.3,27.6,"17:14:00",1
"23/08/23","17:30",0.0,29.9,74.9,1002.4,113.7,1.5,3.3,72.3,0.02,25.0,27.7,"17:26:40",1
"23/08/23","17:40",0.0,29.7,76.0,1002.2,100.4,1.5,4.3,71.8,0.00,25.1,27.5,"17:33:52",1
"23/08/23","17:50",0.0,29.5,76.4,1001.9,96.7,1.2,2.8,107.7,0.00,24.9,27.6,"17:46:32",1
"23/08/23","18:00",0.0,29.4,76.4,1002.2,88.9,1.1,3.9,99.5,0.00,24.9,27.4,"17:54:48",1
"23/08/23","18:10",0.0,29.4,76.5,1001.9,100.3,0.8,2.2,102.0,0.00,24.9,27.7,"18:04:00",1
"23/08/23","18:20",0.0,29.2,76.6,1001.9,99.3,1.3,3.2,139.4,0.00,24.7,27.5,"18:15:36",1
"23/08/23","18:30",0.0,29.1,76.9,1001.9,109.2,0.7,2.2,106.6,0.00,24.7,27.7,"18:20:32",1
"23/08/23","18:40",0.0,29.1,77.0,1002.4,117.0,0.8,2.0,91.7,0.00,24.7,27.2,"18:32:24",1
"23/08/23","18:50",0.0,29.0,77.5,1003.1,117.6,1.0,2.6,114.6,0.00,24.7,27.5,"18:40:24",1
"23/08/23","19:00",0.0,28.8,78.8,1002.9,111.7,0.8,2.2,89.3,0.00,24.8,27.2,"18:52:00",1
"23/08/23","19:10",0.0,28.4,80.1,1003.1,86.6,0.5,1.9,36.7,0.00,24.7,27.2,"19:08:00",1
"23/08/23","19:20",0.0,28.3,81.1,1003.1,350.3,1.0,1.9,359.5,0.00,24.8,27.5,"19:16:08",1
"23/08/23","19:30",0.0,28.1,81.9,1003.4,351.6,0.8,1.9,343.9,0.00,24.8,27.4,"19:21:20",1
"23/08/23","19:40",0.0,28.1,82.3,1003.4,356.4,0.8,2.2,4.4,0.00,24.8,27.3,"19:37:52",1
"23/08/23","19:50",0.0,28.0,82.4,1003.6,59.4,0.6,2.0,50.2,0.00,24.8,27.4,"19:48:40",1
"23/08/23","20:00",0.0,28.3,81.9,1003.6,41.4,0.6,2.1,93.2,0.00,24.9,27.3,"19:56:48",1
"23/08/23","20:10",0.0,28.3,81.5,1003.8,73.8,0.5,2.5,98.1,0.00,24.9,27.3,"20:06:00",1
"23/08/23","20:20",0.0,28.3,81.3,1004.1,83.1,0.8,1.8,345.5,0.00,24.8,27.4,"20:17:04",1
"23/08/23","20:30",0.0,28.4,80.9,1004.1,81.5,1.1,2.7,103.0,0.00,24.8,27.3,"20:28:16",1
"23/08/23","20:40",0.0,28.3,80.9,1003.8,78.1,1.2,3.1,90.0,0.00,24.7,27.3,"20:32:24",1
"23/08/23","20:50",0.0,28.1,81.3,1004.3,68.4,0.6,2.6,89.0,0.00,24.6,27.2,"20:44:56",1
"23/08/23","21:00",0.0,28.0,81.7,1004.3,48.9,0.7,2.1,18.6,0.00,24.6,27.2,"20:54:40",1
"23/08/23","21:10",0.0,27.9,82.1,1004.1,107.6,0.6,1.7,51.8,0.00,24.6,27.3,"21:04:00",1
"23/08/23","21:20",0.0,27.8,82.5,1004.1,109.9,0.6,2.0,95.9,0.00,24.6,27.1,"21:10:48",1
"23/08/23","21:30",0.0,27.8,82.7,1004.1,74.2,0.6,1.6,132.3,0.00,24.6,27.1,"21:25:12",1
"23/08/23","21:40",0.0,27.8,82.7,1004.3,60.7,0.5,2.0,90.9,0.00,24.6,27.3,"21:38:24",1
"23/08/23","21:50",0.0,27.9,82.6,1004.1,81.9,0.8,2.5,70.2,0.00,24.7,27.1,"21:45:12",1
"23/08/23","22:00",0.0,27.9,82.5,1004.1,94.2,0.7,2.9,124.3,0.00,24.7,27.2,"21:59:12",1
"23/08/23","22:10",0.0,27.9,82.6,1004.1,117.8,0.7,2.2,86.7,0.00,24.7,27.1,"22:09:36",1
"23/08/23","22:20",0.0,27.9,82.5,1004.1,91.6,0.7,1.9,110.5,0.00,24.7,27.1,"22:10:40",1
"23/08/23","22:30",0.0,27.9,82.5,1004.1,86.2,0.5,1.9,77.1,0.00,24.7,27.1,"22:29:44",1
"23/08/23","22:40",0.0,27.8,82.8,1003.8,88.5,0.7,1.7,0.8,0.00,24.6,27.0,"22:32:16",1
"23/08/23","22:50",0.0,27.7,83.3,1004.1,147.2,0.6,2.6,106.1,0.00,24.6,27.1,"22:40:32",1
"23/08/23","23:00",0.0,27.6,83.5,1004.3,9.6,0.5,1.3,27.0,0.00,24.6,27.1,"22:56:24",1
"23/08/23","23:10",0.0,27.5,83.7,1003.8,12.4,0.5,1.9,19.7,0.00,24.5,27.0,"23:05:04",1
"23/08/23","23:20",0.0,27.4,84.0,1003.8,60.5,0.3,1.2,340.2,0.00,24.5,27.0,"23:14:40",1
"23/08/23","23:30",0.0,27.4,84.3,1003.4,105.1,0.3,1.8,91.0,0.00,24.6,27.0,"23:28:00",1
"23/08/23","23:40",0.0,27.3,84.6,1003.4,346.3,0.6,1.3,330.3,0.00,24.5,27.0,"23:37:44",1
"23/08/23","23:50",0.0,27.1,85.0,1004.1,100.2,0.3,1.1,94.1,0.00,24.4,27.0,"23:41:44",1
"23/08/23","24:00",0.0,27.0,85.5,1004.1,204.3,0.3,1.0,202.2,0.00,24.4,26.9,"23:59:44",1
